Tracking 32139 objects as of 14-Nov-2025
HD Live streaming from Space Station
objects crossing your sky now

SIRIUS XM-10

Track SIRIUS XM-10 now!
SIRIUS XM-10 is classified as:


NORAD ID: 64290
Int'l Code: 2025-122A
Perigee: 35,782.8 km
Apogee: 35,805.3 km
Inclination: 0.0 °
Period: 1,436.1 minutes
Semi major axis: 42165 km
RCS: Unknown
Launch date: June 7, 2025
Source: United States (US)
Launch site: AIR FORCE EASTERN TEST RANGE (AFETR)
Your satellite tracking list
Your tracking list is empty




NASA's NSSDC Master Catalog

Two Line Element Set (TLE):
1 64290U 25122A   25317.15374973 -.00000019  00000-0  00000-0 0  9991
2 64290   0.0348  44.8523 0002660 306.3697   0.4955  1.00270668  1512
Source of the keplerian elements: AFSPC